Location: Unspecified
(55.6670°N, 0.0000°E)
Time: 04:14:02
(UTC+00:00)

NOAA 16 DEB - Visible Passes

Search period start: 04 April 2026 00:00
Search period end: 14 April 2026 00:00
Orbit: 797 x 802 km, 98.7° (Epoch: 28 March)

Date Brightness Start Highest point End Pass type
(mag) Time Alt. Az. Time Alt. Az. Time Alt. Az.
4 Apr ? 20:24:41 20° SE 20:28:13 54° ENE 20:33:22 10° N visible
4 Apr ? 22:05:36 21° SW 22:08:10 32° W 22:12:54 10° NNW visible
5 Apr ? 19:57:30 13° ESE 20:01:37 36° ENE 20:06:24 10° N visible
5 Apr ? 21:38:24 25° SSW 21:41:11 49° W 21:46:20 10° NNW visible
6 Apr ? 19:30:49 10° ESE 19:35:05 26° NE 19:39:22 10° N visible
6 Apr ? 21:11:13 25° S 21:14:19 76° WSW 21:19:38 10° NNW visible
6 Apr ? 22:52:07 11° WSW 22:54:54 16° W 22:58:01 10° NW visible
7 Apr ? 20:44:00 21° SSE 20:47:32 72° ENE 20:52:48 10° NNW visible
7 Apr ? 22:24:55 16° SW 22:27:44 24° W 22:31:59 10° NW visible
8 Apr ? 20:16:47 16° SE 20:20:51 48° ENE 20:25:54 10° N visible
8 Apr ? 21:57:42 20° SSW 22:00:41 36° W 22:05:33 10° NNW visible
9 Apr ? 19:49:35 10° ESE 19:54:14 33° ENE 19:58:54 10° N visible
9 Apr ? 21:30:29 23° S 21:33:43 56° WSW 21:38:55 10° NNW visible
9 Apr ? 23:13:09 10° W 23:14:35 11° W 23:16:01 10° WNW visible
10 Apr ? 21:03:17 21° SSE 21:06:51 85° WSW 21:12:09 10° NNW visible
10 Apr ? 22:44:11 11° SW 22:47:19 18° W 22:50:49 10° NW visible
11 Apr ? 20:36:03 17° SE 20:40:04 64° ENE 20:45:17 10° NNW visible
11 Apr ? 22:16:58 16° SW 22:20:09 27° W 22:24:37 10° NW visible
12 Apr ? 20:08:49 12° SE 20:13:22 43° ENE 20:18:20 10° N visible
12 Apr ? 21:49:44 19° SSW 21:53:06 41° W 21:58:06 10° NNW visible
13 Apr ? 19:42:15 10° ESE 19:46:45 30° ENE 19:51:17 10° N visible
13 Apr ? 21:22:29 20° S 21:26:09 63° WSW 21:31:24 10° NNW visible
13 Apr ? 23:04:37 10° WSW 23:06:54 13° W 23:09:10 10° NW visible
